Chamberlain, SD

3:57 PM CST on February 25, 2017 (GMT -0600)
Chamberlain

Weather History for K9V9 - October, 2013

Change the Weather History Date:

Tuesday, October 1, 2013

  Actual Average Record
Temperature  
Mean Temperature 62 °F -  
Max Temperature 75 °F 66 °F 88 °F (2005)
Min Temperature 48 °F 40 °F 25 °F (1999)
Degree Days  
Heating Degree Days 4    
Growing Degree Days 12 (Base 50)    
Moisture  
Dew Point 37 °F    
Average Humidity 46    
Maximum Humidity 74    
Minimum Humidity 18    
Precipitation  
Precipitation 0.00 in - - ()
Sea Level Pressure  
Sea Level Pressure 29.92 in    
Wind  
Wind Speed 10 mph (NNW)    
Max Wind Speed 16 mph    
Max Gust Speed 26 mph    
Averages and records for this station are not official NWS values.
T = Trace of Precipitation, MM = Missing Value Source: NWS Daily Summary

Daily Weather History Graph

Daily Weather History Graph

Search for Another Location

Airport or City:

Trip Planner

Search our weather history database for the weather conditions in past years. The results will help you decide how hot, cold, wet, or windy it might be!

Date:

Astronomy

Oct. 01, 2013 Rise Set
Actual Time 7:35 AM CDT 7:17 PM CDT
Civil Twilight 7:06 AM CDT 7:46 PM CDT
Nautical Twilight 6:33 AM CDT 8:19 PM CDT
Astronomical Twilight 5:59 AM CDT 8:53 PM CDT
Moon 4:05 AM CDT (10/1) 5:26 PM CDT (10/1)
Length of Visible Light 12h 39m
Length of Day
11h 42m
Waning Crescent, 12% of the Moon is Illuminated
Oct 1
Waning Crescent
Oct 4
New
Oct 11
First Quarter
Oct 18
Full
Oct 26
Last Quarter

Hourly Weather History & Observations

Time (CDT) Temp. Dew Point Humidity Pressure Visibility Wind Dir Wind Speed Gust Speed Precip Events Conditions
12:52 AM 62.1 °F 46.9 °F 58% 29.69 in - NNW 16.1 mph 26.5 mph N/A   Unknown
1:52 AM 57.9 °F 46.9 °F 67% 29.76 in - NNW 12.7 mph - N/A   Unknown
2:52 AM 55.9 °F 45.0 °F 67% 29.78 in - NNW 12.7 mph - N/A   Unknown
3:52 AM 54.0 °F 43.0 °F 66% 29.81 in - NNW 12.7 mph - N/A   Unknown
4:52 AM 50.0 °F 42.1 °F 74% 29.84 in - NNW 5.8 mph - N/A   Unknown
5:52 AM 52.0 °F 42.1 °F 69% 29.85 in - North 12.7 mph - N/A   Unknown
6:52 AM 51.1 °F 41.0 °F 68% 29.90 in - NNW 10.4 mph - N/A   Unknown
7:52 AM 48.9 °F 39.9 °F 71% 29.93 in - North 12.7 mph - N/A   Unknown
8:52 AM 53.1 °F 39.0 °F 59% 29.96 in - NNW 6.9 mph - N/A   Unknown
9:52 AM 60.1 °F 37.9 °F 44% 29.96 in - North 8.1 mph - N/A   Unknown
10:52 AM 64.9 °F 37.9 °F 37% 29.97 in - NNE 8.1 mph - N/A   Unknown
11:52 AM 69.1 °F 30.9 °F 24% 29.99 in - ENE 4.6 mph - N/A   Unknown
12:52 PM 71.1 °F 28.9 °F 21% 29.99 in - NE 4.6 mph - N/A   Unknown
1:52 PM 72.0 °F 28.0 °F 20% 29.98 in - NNW 5.8 mph - N/A   Unknown
2:52 PM 73.9 °F 28.9 °F 19% 29.96 in - WNW 5.8 mph - N/A   Unknown
3:52 PM 75.0 °F 28.9 °F 18% 29.95 in - Calm Calm - N/A   Unknown
4:52 PM 73.9 °F 28.9 °F 19% 29.94 in - WSW 5.8 mph - N/A   Unknown
5:52 PM 73.0 °F 30.0 °F 20% 29.94 in - WSW 4.6 mph - N/A   Unknown
6:52 PM 66.9 °F 35.1 °F 31% 29.95 in - SSW 5.8 mph - N/A   Unknown
7:52 PM 63.0 °F 35.1 °F 35% 29.96 in - South 5.8 mph - N/A   Unknown
8:52 PM 57.9 °F 37.9 °F 47% 29.97 in - South 5.8 mph - N/A   Unknown
9:52 PM 57.0 °F 37.0 °F 47% 29.97 in - South 5.8 mph - N/A   Unknown
10:52 PM 53.1 °F 41.0 °F 64% 29.97 in - South 8.1 mph - N/A   Unknown
11:52 PM 52.0 °F 39.9 °F 63% 29.96 in - South 8.1 mph - N/A   Unknown